[[{"header":{"parameterUnit":"m.s-1","parameterCategory":1,"la1":30.2991,"la2":30.254,"lo1":-89.0895,"lo2":-89.0444,"dy":0.0017,"dx":0.0017,"nx":28,"ny":28,"refTime":"2024-03-20T21:00:00:Z","depth":0,"parameterNumber":2,"parameterNumberName":"U-component_of_WINDS"},"data":[0,0,0,0,0,0,0,0,0,0,0,0,0,0,0,0,0,0,0,0,0,0,0,0,0,0,0,0,0,0,0,0,0,0,0,0,0,0,0,0,0,0,0,0,0,0,0,0,0,0,0,0,0,0,0,0,0,0,0.7652,0.7653,0,0.7731,0.7732,0.7733,0.7734,0.7733,0.7732,0.7731,0.7817,0.782,0.7824,0,0,0,0,0,0,0,0,0,0,0,0,0,0.7504,0.7507,0.7652,0.7653,0.7654,0.7731,0.7732,0.7733,0.7734,0.7733,0.7732,0.773,0.7816,0.782,0.7824,0,0,0,0,0,0,0,0,0,0,0,0,0,0.7575,0.7508,0.7652,0.7663,0.7665,0.7731,0.7732,0.7734,0.7734,0.7733,0.7731,0.773,0.7815,0.782,0.7825,0.7886,0,0,0.784,0.7842,0,0,0,0,0,0,0,0,0.7571,0.758,0.7661,0.7663,0.7665,0.7721,0.7712,0.7785,0.7735,0.7708,0.7731,0.7729,0.7787,0.7794,0.7812,0.789,0.7894,0.784,0.7843,0.7845,0.7846,0,0,0,0,0,0,0,0.7566,0.7577,0.7683,0.7662,0.7664,0.7666,0.7674,0.7726,0.7755,0.771,0.7711,0.772,0.7788,0.7808,0.7815,0.7895,0.784,0.7844,0.7847,0.7849,0.8026,0.8028,0,0,0,0,0,0,0.7558,0.7573,0.7681,0.7686,0.7613,0.767,0.7679,0.7705,0.7755,0.7761,0.7721,0.7719,0.78,0.7809,0.7818,0.7892,0.7845,0.785,0.7852,0.8025,0.8027,0.8029,0,0,0,0,0,0,0.7555,0.7568,0.7678,0.7629,0.7643,0.7674,0.7703,0.7707,0.7727,0.7763,0.7768,0.7736,0.7799,0.7811,0.7868,0.7895,0.7852,0.7856,0.8023,0.8025,0.8028,0.8042,0,0,0,0,0,0,0.7551,0.7566,0.7589,0.763,0.7646,0.7726,0.7704,0.771,0.7735,0.7734,0.7778,0.7784,0.7799,0.7861,0.7873,0.7901,0.786,0.802,0.8024,0.8027,0.804,0.8045,0.805,0,0,0,0,0,0.7545,0.7591,0.759,0.7603,0.7675,0.7727,0.7737,0.7752,0.7737,0.776,0.7783,0.7783,0.789,0.7867,0.7881,0.7911,0.8019,0.8023,0.8027,0.8037,0.8044,0.805,0,0,0,0,0,0,0.7555,0.7597,0.7596,0.7656,0.7688,0.7727,0.7758,0.7758,0.7796,0.7794,0.7812,0.7822,0.788,0.7901,0.7874,0.7972,0.7953,0.796,0.7956,0.7963,0.7968,0.7962,0.7864,0,0,0,0,0,0.7564,0.7601,0.7637,0.7686,0.7702,0.7727,0.7751,0.7759,0.7794,0.7808,0.7835,0.7869,0.7911,0.7938,0.7979,0.8043,0.8053,0.807,0.8075,0.8079,0.8085,0.8121,0.8129,0.8042,0.8042,0.8042,0,0,0.7583,0.761,0.7634,0.7689,0.7715,0.7755,0.7739,0.7782,0.7812,0.7815,0.787,0.7891,0.7932,0.7992,0.8021,0.8012,0.8111,0.8084,0.8087,0.8091,0.8126,0.8134,0.8141,0.8044,0.8044,0.8044,0,0,0.7638,0.7662,0.7706,0.7732,0.777,0.7786,0.7797,0.7836,0.7849,0.7905,0.7908,0.7945,0.8016,0.8044,0.8068,0.8133,0.8134,0.8146,0.8173,0.8208,0.8214,0.8221,0.8244,0.8252,0.8152,0.8152,0.8152,0,0.7658,0.7716,0.7729,0.7772,0.7797,0.7799,0.7844,0.7869,0.7919,0.7937,0.7926,0.8015,0.8042,0.8109,0.8125,0.8144,0.8158,0.8141,0.8212,0.8218,0.8224,0.8247,0.8256,0.8153,0.8153,0.8153,0.8153,0,0.7738,0.7779,0.7811,0.7857,0.7885,0.7929,0.795,0.7977,0.7983,0.8,0.8057,0.809,0.8136,0.8153,0.816,0.8222,0.8215,0.8208,0.8189,0.8234,0.8255,0.8264,0.8155,0.8154,0.8154,0.8154,0,0,0.7803,0.7854,0.7866,0.7887,0.7929,0.7961,0.8006,0.805,0.8073,0.8107,0.8146,0.8205,0.8199,0.8226,0.8236,0.8266,0.8315,0.8255,0.8256,0.8265,0.8385,0.839,0.84,0.8316,0.8317,0.8319,0.8382,0,0.7863,0.7939,0.7952,0.802,0.8058,0.8061,0.8099,0.813,0.8148,0.8184,0.8204,0.8246,0.8234,0.825,0.828,0.8303,0.834,0.8298,0.8353,0.8354,0.8342,0.8411,0.8417,0.8475,0.8391,0.8392,0.8393,0,0.7943,0.7977,0.8049,0.8085,0.8101,0.8136,0.8177,0.8211,0.8246,0.8257,0.8286,0.8293,0.834,0.8318,0.8384,0.8355,0.8378,0.8393,0.8396,0.8402,0.8377,0.8419,0.8494,0.8503,0.8406,0.8405,0.8404,0,0.7982,0.8047,0.8098,0.8116,0.8159,0.8183,0.8203,0.8236,0.8262,0.8298,0.8315,0.8357,0.8381,0.8414,0.8432,0.8414,0.8496,0.8476,0.8507,0.8507,0.8525,0.8524,0.8605,0.8539,0.8539,0.8539,0.8539,0,0.8048,0.8092,0.8116,0.8148,0.8197,0.8211,0.826,0.8279,0.8309,0.8345,0.835,0.8384,0.8406,0.8443,0.8458,0.851,0.8521,0.8531,0.8535,0.8531,0.853,0.8547,0.8543,0.8541,0.8541,0.854,0.854,0,0.8101,0.8119,0.8175,0.8211,0.8221,0.8255,0.8287,0.8318,0.8335,0.8381,0.8392,0.842,0.8464,0.8485,0.8541,0.855,0.861,0.861,0.8597,0.8599,0.8629,0.8626,0.8724,0.8737,0.8663,0.8664,0.8664,0,0.8142,0.8175,0.8214,0.8238,0.8257,0.8296,0.8321,0.8337,0.8363,0.8405,0.8432,0.8476,0.8512,0.8583,0.8608,0.8651,0.8653,0.8684,0.8659,0.8654,0.8653,0.8651,0.8655,0.8689,0.869,0.869,0.8691,0,0.8213,0.8219,0.8255,0.8294,0.8323,0.8355,0.8386,0.8406,0.8426,0.8456,0.85,0.8528,0.8584,0.8628,0.8672,0.8693,0.8696,0.8698,0.8708,0.8704,0.8695,0.87,0.861,0.8696,0.8695,0.8695,0.8695,0.8695,0.8261,0.829,0.8322,0.8361,0.8386,0.8415,0.8445,0.8466,0.8502,0.8547,0.8555,0.8602,0.8637,0.8695,0.8719,0.8757,0.875,0.8763,0.8767,0.877,0.8772,0.8689,0.8765,0.8765,0.8765,0.8765,0.8764,0,0.8332,0.8352,0.8388,0.843,0.8461,0.8459,0.8493,0.852,0.8561,0.8592,0.8626,0.8677,0.872,0.8748,0.8791,0.8817,0.8819,0.8827,0.8826,0.8831,0.8776,0.8763,0.8825,0.8825,0.8825,0.8825,0.8825,0.8825,0.8372,0.8422,0.8432,0.8495,0.8515,0.856,0.8579,0.8606,0.8631,0.8687,0.8721,0.8739,0.8769,0.8815,0.8854,0.8861,0.8877,0.8886,0.8893,0.8841,0.8835,0.8829,0.8817,0.8889,0.8889,0.8945,0.8946,0.8946]},{"header":{"parameterUnit":"m.s-1","parameterCategory":1,"la1":30.2991,"la2":30.254,"lo1":-89.0895,"lo2":-89.0444,"dy":0.0017,"dx":0.0017,"nx":28,"ny":28,"refTime":"2024-03-20T21:00:00:Z","depth":0,"parameterNumber":3,"parameterNumberName":"V-component_of_WINDS"},"data":[0,0,0,0,0,0,0,0,0,0,0,0,0,0,0,0,0,0,0,0,0,0,0,0,0,0,0,0,0,0,0,0,0,0,0,0,0,0,0,0,0,0,0,0,0,0,0,0,0,0,0,0,0,0,0,0,0,0,1.8378,1.8378,0,1.8376,1.8376,1.8376,1.8401,1.8402,1.8403,1.8403,1.8398,1.8397,1.8396,0,0,0,0,0,0,0,0,0,0,0,0,0,1.8403,1.8403,1.8378,1.8378,1.8378,1.8376,1.8376,1.8376,1.8401,1.8402,1.8403,1.8404,1.8398,1.8397,1.8396,0,0,0,0,0,0,0,0,0,0,0,0,0,1.8395,1.8402,1.8378,1.8391,1.8392,1.8376,1.8376,1.8376,1.8401,1.8402,1.8403,1.8404,1.8398,1.8397,1.8396,1.8367,0,0,1.8392,1.8392,0,0,0,0,0,0,0,0,1.8396,1.8394,1.8389,1.839,1.8391,1.839,1.8382,1.8373,1.8401,1.8397,1.8403,1.8404,1.8394,1.8393,1.839,1.8367,1.8367,1.8392,1.8392,1.8391,1.8391,0,0,0,0,0,0,0,1.8396,1.8395,1.8377,1.8389,1.839,1.8396,1.8396,1.8381,1.839,1.8398,1.84,1.8399,1.8395,1.8392,1.839,1.8367,1.8392,1.8391,1.839,1.839,1.8317,1.8316,0,0,0,0,0,0,1.8396,1.8395,1.8377,1.8377,1.8396,1.8394,1.8394,1.8389,1.839,1.8391,1.8398,1.84,1.8393,1.8392,1.839,1.8355,1.8391,1.839,1.8389,1.8318,1.8316,1.8315,0,0,0,0,0,0,1.8396,1.8394,1.8377,1.8387,1.8385,1.8393,1.8387,1.8389,1.8385,1.839,1.8392,1.8393,1.8394,1.8392,1.8372,1.8355,1.8389,1.8388,1.8319,1.8317,1.8316,1.8284,0,0,0,0,0,0,1.8397,1.8394,1.8384,1.8386,1.8384,1.836,1.8386,1.8388,1.8383,1.8386,1.8386,1.8387,1.8395,1.8374,1.8371,1.8354,1.8387,1.8321,1.8319,1.8316,1.8287,1.8281,1.8277,0,0,0,0,0,1.8397,1.8375,1.8383,1.8381,1.8372,1.8359,1.8358,1.8368,1.8382,1.8371,1.8374,1.8387,1.8358,1.8372,1.8369,1.8351,1.8322,1.8319,1.8317,1.8289,1.8282,1.8277,0,0,0,0,0,0,1.8369,1.8375,1.8384,1.8362,1.836,1.8364,1.835,1.8361,1.8355,1.8357,1.8369,1.8369,1.8347,1.8347,1.8363,1.8322,1.8342,1.8339,1.8322,1.8316,1.8311,1.831,1.8386,0,0,0,0,0,1.836,1.835,1.8356,1.8336,1.8334,1.8342,1.8337,1.8345,1.8343,1.8342,1.8344,1.8341,1.8331,1.8324,1.8315,1.8287,1.8286,1.8273,1.8269,1.8264,1.8261,1.8244,1.8237,1.8306,1.8306,1.8306,0,0,1.8342,1.8344,1.8337,1.833,1.8329,1.8317,1.8341,1.8328,1.8319,1.834,1.8321,1.8322,1.8319,1.8295,1.8284,1.8295,1.8242,1.8261,1.8258,1.8256,1.824,1.8234,1.8228,1.8304,1.8305,1.8305,0,0,1.8301,1.8303,1.8285,1.8284,1.8283,1.8289,1.8284,1.8286,1.8288,1.8269,1.8284,1.8273,1.8256,1.8253,1.8249,1.8207,1.8217,1.8204,1.8177,1.8161,1.8155,1.815,1.8133,1.8127,1.82,1.82,1.82,0,1.8278,1.8262,1.8275,1.826,1.8256,1.8275,1.8256,1.8254,1.825,1.8246,1.8258,1.8236,1.8235,1.8209,1.8199,1.8196,1.819,1.8203,1.8155,1.8151,1.8146,1.813,1.8124,1.8198,1.8199,1.8199,1.8199,0,1.8232,1.8221,1.8206,1.8202,1.8196,1.818,1.8189,1.8181,1.819,1.8193,1.8173,1.8174,1.8164,1.8159,1.8167,1.8134,1.814,1.8153,1.8174,1.8138,1.8122,1.8116,1.8196,1.8196,1.8197,1.8197,0,0,1.8173,1.8176,1.817,1.8168,1.8168,1.8158,1.8142,1.8134,1.8126,1.8123,1.8108,1.8093,1.8105,1.81,1.8108,1.8094,1.8058,1.8109,1.8109,1.8097,1.8018,1.8006,1.7999,1.8066,1.8065,1.8064,1.8018,0,1.8132,1.8105,1.8116,1.8087,1.8075,1.8093,1.8079,1.8076,1.8079,1.8069,1.8072,1.806,1.8079,1.8076,1.8063,1.8065,1.8042,1.8069,1.805,1.8049,1.8048,1.7991,1.7979,1.7935,1.8012,1.8011,1.801,0,1.808,1.8075,1.8045,1.8046,1.8041,1.8028,1.802,1.8011,1.8008,1.8011,1.8006,1.8017,1.7999,1.8021,1.7996,1.8014,1.8007,1.8007,1.8005,1.8002,1.8026,1.7984,1.7922,1.7915,1.8001,1.8002,1.8003,0,1.8037,1.8022,1.8002,1.8,1.8001,1.7991,1.7991,1.7989,1.7983,1.7976,1.7972,1.7963,1.7957,1.7949,1.7956,1.7972,1.7929,1.7952,1.7929,1.7929,1.7918,1.7918,1.7851,1.7917,1.7917,1.7918,1.7918,0,1.7989,1.7969,1.7983,1.797,1.7948,1.796,1.7938,1.794,1.7938,1.7925,1.7941,1.7928,1.7939,1.7927,1.7932,1.7909,1.7907,1.7908,1.7909,1.7905,1.7905,1.7899,1.7901,1.7916,1.7916,1.7917,1.7917,0,1.7936,1.7945,1.7923,1.7926,1.7926,1.791,1.7912,1.7899,1.7904,1.7887,1.7883,1.789,1.7876,1.7883,1.7869,1.7872,1.7842,1.7848,1.7843,1.7843,1.7819,1.782,1.7745,1.7734,1.7809,1.7809,1.7808,0,1.7903,1.7889,1.789,1.7883,1.7882,1.787,1.7864,1.7875,1.7868,1.7863,1.785,1.7838,1.7829,1.7806,1.7808,1.7797,1.7801,1.7776,1.78,1.7795,1.7798,1.7798,1.7795,1.777,1.7769,1.7768,1.7768,0,1.7844,1.7849,1.784,1.7832,1.7824,1.7818,1.7813,1.7806,1.7817,1.7808,1.7794,1.7787,1.7772,1.7758,1.7748,1.7747,1.7758,1.7761,1.7754,1.7749,1.7745,1.7744,1.7827,1.7762,1.7762,1.7763,1.7763,1.7763,1.7799,1.7786,1.7785,1.7773,1.7771,1.7766,1.7754,1.7757,1.7746,1.7735,1.7743,1.7726,1.7722,1.771,1.7707,1.7693,1.7703,1.7694,1.7692,1.7689,1.7684,1.7749,1.7691,1.7692,1.7692,1.7692,1.7692,0,1.7738,1.7738,1.7728,1.7721,1.7711,1.7725,1.772,1.7711,1.7696,1.7692,1.7683,1.7666,1.7653,1.7654,1.7642,1.763,1.7635,1.7626,1.7626,1.7625,1.7677,1.7683,1.7623,1.7623,1.7623,1.7623,1.7623,1.7623,1.7705,1.7684,1.7688,1.7665,1.7665,1.7649,1.7645,1.764,1.7636,1.7617,1.7607,1.7608,1.7606,1.7593,1.7581,1.7582,1.7576,1.7564,1.7567,1.7615,1.7622,1.7628,1.7633,1.7564,1.7564,1.7515,1.7515,1.7515]}]]